Weather History for DeKalb, IL

Change the Weather History Date:

Monday, April 29, 2013

  Actual Average (KARR) Record (KARR)
Temperature  
Mean Temperature 59 °F 53 °F  
Max Temperature 71 °F 65 °F 82 °F (2007)
Min Temperature 47 °F 41 °F 28 °F (2008)
Degree Days  
Heating Degree Days 6 12  
Month to date heating degree days 485  
Since 1 July heating degree days 6493  
Cooling Degree Days 0 0  
Month to date cooling degree days 0  
Year to date cooling degree days 0  
Growing Degree Days 9 (Base 50)    
Moisture  
Dew Point 51 °F    
Average Humidity 73    
Maximum Humidity 91    
Minimum Humidity 46    
Precipitation  
Precipitation 0.00 in 0.16 in 0.32 in (2012)
Month to date precipitation 3.14  
Year to date precipitation 8.46  
Sea Level Pressure  
Sea Level Pressure 29.84 in    
Wind  
Wind Speed 11 mph (South)    
Max Wind Speed 23 mph    
Max Gust Speed 30 mph    
Visibility 9 miles    
Events      
T = Trace of Precipitation, MM = Missing Value Source: NWS Daily Summary

Daily Weather History Graph

Daily Weather History Graph

Search for Another Location

Airport:

Trip Planner

Search our weather history database for the weather conditions in past years. The results will help you decide how hot, cold, wet, or windy it might be!

Date:

Astronomy

Apr. 29, 2013 Rise Set
Actual Time 5:53 AM CDT 7:51 PM CDT
Civil Twilight 5:23 AM CDT 8:21 PM CDT
Nautical Twilight 4:46 AM CDT 8:59 PM CDT
Astronomical Twilight 4:06 AM CDT 9:39 PM CDT
Moon No Moon Rise 9:12 AM CDT (4/29)
Length of Visible Light 14h 58m
Length of Day
13h 58m
Waning Gibbous, 80% of the Moon is Illuminated
Apr 29
Waning Gibbous
May 2
Last Quarter
May 9
New
May 17
First Quarter
May 24
Full

Hourly Weather History & Observations

Time (CDT) Temp. Dew Point Humidity Pressure Visibility Wind Dir Wind Speed Gust Speed Precip Events Conditions
12:15 AM 50.7 °F 47.7 °F 89% 29.87 in 7.0 mi SSW 6.9 mph - N/A   Clear
12:35 AM 52.0 °F 48.9 °F 89% 29.87 in 7.0 mi SW 6.9 mph - N/A   Clear
12:55 AM 51.1 °F 47.8 °F 89% 29.87 in 7.0 mi SW 6.9 mph - N/A   Clear
1:15 AM 52.0 °F 48.6 °F 88% 29.87 in 10.0 mi SW 6.9 mph - N/A   Clear
1:35 AM 52.3 °F 48.7 °F 88% 29.87 in 10.0 mi SW 6.9 mph - N/A   Clear
1:55 AM 50.9 °F 47.7 °F 89% 29.87 in 7.0 mi SW 6.9 mph - N/A   Clear
2:15 AM 51.3 °F 48.0 °F 89% 29.86 in 10.0 mi SW 8.1 mph - N/A   Clear
2:35 AM 51.8 °F 48.4 °F 88% 29.86 in 10.0 mi SW 9.2 mph - N/A   Clear
2:55 AM 51.8 °F 48.4 °F 88% 29.86 in 10.0 mi SW 10.4 mph - N/A   Clear
3:15 AM 51.8 °F 48.2 °F 88% 29.86 in 10.0 mi SW 10.4 mph - N/A   Clear
3:35 AM 51.4 °F 48.2 °F 89% 29.86 in 10.0 mi SW 10.4 mph - N/A   Clear
3:55 AM 50.9 °F 47.7 °F 89% 29.86 in 10.0 mi SW 10.4 mph - N/A   Clear
4:15 AM 50.7 °F 47.5 °F 89% 29.86 in 10.0 mi SW 9.2 mph - N/A   Clear
4:35 AM 50.2 °F 47.3 °F 90% 29.87 in 7.0 mi SW 8.1 mph - N/A   Clear
4:55 AM 50.2 °F 47.3 °F 90% 29.88 in 7.0 mi SW 8.1 mph - N/A   Clear
5:15 AM 50.2 °F 47.3 °F 90% 29.88 in 10.0 mi SW 9.2 mph - N/A   Clear
5:35 AM 49.8 °F 46.8 °F 89% 29.89 in 10.0 mi SW 9.2 mph - N/A   Clear
5:55 AM 49.1 °F 46.2 °F 90% 29.89 in 7.0 mi SW 9.2 mph - N/A   Clear
6:15 AM 47.7 °F 45.0 °F 90% 29.90 in 5.0 mi SSW 6.9 mph - N/A   Clear
6:35 AM 49.5 °F 46.6 °F 90% 29.90 in 7.0 mi SW 8.1 mph - N/A   Clear
6:55 AM 50.0 °F 47.1 °F 90% 29.91 in 7.0 mi SSW 5.8 mph - N/A   Clear
7:15 AM 50.2 °F 47.5 °F 90% 29.90 in 7.0 mi South 6.9 mph - N/A   Clear
7:35 AM 51.1 °F 48.6 °F 91% 29.91 in 7.0 mi South 8.1 mph - N/A   Clear
7:55 AM 51.8 °F 49.1 °F 90% 29.91 in 7.0 mi South 9.2 mph - N/A   Clear
8:15 AM 52.7 °F 49.6 °F 89% 29.91 in 7.0 mi South 9.2 mph - N/A   Clear
8:35 AM 54.0 °F 50.4 °F 88% 29.90 in 10.0 mi South 9.2 mph - N/A   Clear
8:55 AM 55.4 °F 51.4 °F 87% 29.90 in 10.0 mi South 9.2 mph - N/A   Clear
9:15 AM 55.4 °F 51.3 °F 86% 29.91 in 10.0 mi South 6.9 mph - N/A   Clear
9:35 AM 56.1 °F 52.0 °F 86% 29.89 in 10.0 mi South 5.8 mph - N/A   Clear
9:55 AM 57.4 °F 52.0 °F 82% 29.89 in 10.0 mi SSE 9.2 mph - N/A   Clear
10:15 AM 59.7 °F 53.1 °F 79% 29.89 in 10.0 mi South 10.4 mph - N/A   Clear
10:35 AM 61.3 °F 52.7 °F 73% 29.89 in 10.0 mi SSE 11.5 mph - N/A   Clear
10:55 AM 62.8 °F 52.5 °F 69% 29.89 in 10.0 mi South 15.0 mph - N/A   Clear
11:15 AM 63.5 °F 52.3 °F 67% 29.88 in 10.0 mi South 12.7 mph 18.4 mph N/A   Clear
11:35 AM 64.9 °F 51.3 °F 61% 29.88 in 10.0 mi South 15.0 mph - N/A   Clear
11:55 AM 66.4 °F 51.4 °F 59% 29.88 in 10.0 mi SSE 17.3 mph 20.7 mph N/A   Clear
12:15 PM 68.0 °F 50.9 °F 54% 29.87 in 10.0 mi SSE 15.0 mph - N/A   Clear
12:35 PM 68.0 °F 49.8 °F 52% 29.86 in 10.0 mi SSE 17.3 mph - N/A   Clear
12:55 PM 69.8 °F 48.2 °F 46% 29.85 in 10.0 mi South 19.6 mph 25.3 mph N/A   Clear
1:15 PM 69.8 °F 50.0 °F 49% 29.85 in 10.0 mi SSE 17.3 mph - N/A   Clear
1:35 PM 68.5 °F 48.7 °F 49% 29.84 in 10.0 mi SSE 18.4 mph 21.9 mph N/A   Clear
1:55 PM 67.3 °F 48.7 °F 51% 29.83 in 10.0 mi SSE 18.4 mph 24.2 mph N/A   Clear
2:15 PM 68.9 °F 49.8 °F 51% 29.83 in 10.0 mi SSE 20.7 mph 24.2 mph N/A   Clear
2:35 PM 70.3 °F 50.0 °F 48% 29.82 in 10.0 mi SSE 20.7 mph 26.5 mph N/A   Clear
2:55 PM 69.3 °F 49.1 °F 49% 29.82 in 10.0 mi SSE 20.7 mph 24.2 mph N/A   Scattered Clouds
3:15 PM 71.1 °F 50.4 °F 48% 29.82 in 10.0 mi SSE 18.4 mph 25.3 mph N/A   Scattered Clouds
3:35 PM 69.8 °F 50.0 °F 49% 29.81 in 10.0 mi SSE 17.3 mph 24.2 mph N/A   Scattered Clouds
3:55 PM 70.3 °F 49.6 °F 48% 29.80 in 10.0 mi SSE 19.6 mph 25.3 mph N/A   Clear
4:15 PM 71.1 °F 50.2 °F 48% 29.79 in 10.0 mi SSE 21.9 mph 26.5 mph N/A   Clear
4:35 PM 70.7 °F 50.2 °F 48% 29.78 in 10.0 mi SSE 20.7 mph 25.3 mph N/A   Clear
4:55 PM 71.4 °F 50.7 °F 48% 29.77 in 10.0 mi SSE 21.9 mph 27.6 mph N/A   Clear
5:15 PM 71.2 °F 50.5 °F 48% 29.76 in 10.0 mi SSE 23.0 mph 26.5 mph N/A   Clear
5:35 PM 70.7 °F 51.1 °F 50% 29.76 in 10.0 mi SSE 23.0 mph 29.9 mph N/A   Clear
5:55 PM 70.3 °F 52.5 °F 53% 29.76 in 10.0 mi SSE 21.9 mph 29.9 mph N/A   Clear
6:15 PM 69.1 °F 52.3 °F 55% 29.76 in 10.0 mi SSE 20.7 mph 25.3 mph N/A   Clear
6:35 PM 68.5 °F 53.1 °F 58% 29.76 in 10.0 mi SSE 19.6 mph 26.5 mph N/A   Clear
6:55 PM 68.0 °F 54.0 °F 61% 29.77 in 10.0 mi SSE 20.7 mph 29.9 mph N/A   Clear
7:15 PM 66.6 °F 54.7 °F 66% 29.77 in 10.0 mi SSE 17.3 mph - N/A   Clear
7:35 PM 65.8 °F 55.4 °F 69% 29.77 in 10.0 mi SSE 17.3 mph - N/A   Clear
7:55 PM 64.8 °F 55.4 °F 72% 29.78 in 10.0 mi South 16.1 mph - N/A   Clear
8:15 PM 63.9 °F 55.4 °F 74% 29.79 in 10.0 mi SSE 15.0 mph - N/A   Clear
8:35 PM 63.5 °F 55.4 °F 75% 29.79 in 10.0 mi SSE 15.0 mph - N/A   Clear
8:55 PM 63.0 °F 55.4 °F 76% 29.79 in 10.0 mi SSE 16.1 mph - N/A   Clear
9:15 PM 62.8 °F 55.0 °F 76% 29.79 in 10.0 mi SSE 17.3 mph 23.0 mph N/A   Clear
9:35 PM 61.9 °F 54.9 °F 78% 29.80 in 10.0 mi SSE 15.0 mph - N/A   Clear
9:55 PM 61.7 °F 55.0 °F 79% 29.79 in 10.0 mi SSE 16.1 mph 23.0 mph N/A   Clear
10:15 PM 61.7 °F 54.9 °F 78% 29.79 in 10.0 mi SSE 18.4 mph 23.0 mph N/A   Clear
10:35 PM 61.7 °F 54.7 °F 78% 29.80 in 10.0 mi SSE 16.1 mph 21.9 mph N/A   Clear
10:55 PM 60.8 °F 55.4 °F 82% 29.80 in 10.0 mi SSE 15.0 mph 20.7 mph N/A   Clear
11:15 PM 61.0 °F 54.7 °F 80% 29.79 in 10.0 mi SSE 18.4 mph 24.2 mph N/A   Clear
11:35 PM 60.6 °F 54.5 °F 80% 29.80 in 10.0 mi SSE 17.3 mph - N/A   Clear
11:55 PM 60.3 °F 54.5 °F 81% 29.79 in 10.0 mi SSE 18.4 mph 23.0 mph N/A   Clear